Voltar ao catálogo

BREEZE-M R/B

AtivoMEO
NORAD 42909·ROCKET BODY·🇷🇺 Russia

Lançado Aug 16, 2017 de Baikonur Cosmodrome

Loading…

Próximas Passagens (próximas 24 horas)

TLE

AtualizadoSource: Space-Track

Época: Sep 13, 2026, 11:57 UTC

1 42909U 17046C   26256.49831626 -.00000168  00000-0  00000-0 0  9998
2 42909   8.9439  67.2473 0761534 163.5124 199.3211  0.90332501 29950

Acompanhe BREEZE-M R/B em tempo real com AllMySat

Download on the App Store